Language selection

My Weather Profile Weather Topics  | 

Pacific - North Coast: Past 24 Hour Conditions

 

Prince Rupert Airport

11:00 AM PST 16 January 2022
Disclaimer

This table is a summary of hourly weather conditions for the past 24 hours.
Please note that these observations might not always be representative of weather conditions over their associated marine area.

Date / Time
(PST)
Wind(knots) Conditions Visibility(km) Pressure(kPa) Air tempC) Relative humidity(%) Dew pointC)
16 January 2022
11:00 ESE 10 Light Rain 3 100.8 6 95 5
10:00 SE 6 Rain 2 100.8 6 95 5
9:00 SE 14 gust 19 Light Rain 5 100.7 6 91 4
8:00 SE 16 gust 25 Light Rain 16 100.7 6 89 4
7:00 SE 17 gust 25 Rain 5 100.8 6 88 4
6:00 SE 16 gust 24 Light Rain 6 100.9 5 87 3
5:00 ESE 18 gust 25 Rain 5 101.0 5 87 3
4:00 SE 15 gust 25 Rain 6 101.1 5 88 3
3:00 ESE 14 gust 22 Rain 13 101.2 5 87 3
2:00 SE 12 gust 24 Light Rain 16 101.4 4 89 2
1:00 ESE 10 Heavy Rain 4 101.7 4 91 2
0:00 SE 9 Rain 6 101.8 4 92 3
15 January 2022
23:00 ESE 10 Rain 6 101.9 4 92 3
22:00 SE 8 Light Rain 16 102.0 4 92 3
21:00 SE 7 Light Rain 16 102.1 4 92 3
20:00 ESE 7 Light Rain 16 102.2 4 91 3
19:00 SE 9 Light Rain 16 102.2 4 91 3
18:00 SE 7 Light Rain 11 102.3 4 93 3
17:00 SSE 8 gust 18 Light Rain 13 102.3 5 91 4
16:00 SSE 9 Light Rain 16 102.3 5 90 4
15:00 SSE 9 Cloudy 16 102.3 6 86 4
14:00 SSE 7 Cloudy 16 102.4 6 83 3
13:00 S 7 Light Rain 15 102.3 6 81 3
12:00 S 7 gust 15 Light Rain 15 102.3 6 80 3
11:00 S 8 gust 16 Cloudy 15 102.2 7 81 3

Zoom-in to make a selection

Map of Pacific - North Coast marine weather areas Middle Nomad - 46004 South Nomad - 46036 Dixon Entrance Central - 46145 South Moresby - 46147 Nanakwa Shoal - 46181 North Hecate Strait - 46183 North Nomad - 46184 South Hecate Strait - 46185 West Sea Otter - 46204 West Dixon Entrance - 46205 East Dellwood - 46207 West Moresby - 46208 Sartine Island Cape St.James Kindakun Rocks Langara Island Masset Municipal Airport Rose Spit Sandspit Airport Bella Bella Airport Bella Coola Airport Bonilla Island Cathedral Point Cumshewa Island Grey Islet Holland Rock Lucy Islands Lightstation Prince Rupert Airport
Legend:
buoy Buoy
land station Land Station

Pacific - North Coast Area

Another Region

What we are doing

Features

Hello Weather

Hello Weather: our upgraded telephone weather service is here. 1-833-794-3556 or 1-833-79HELLO.

Date modified: